{"data":{"norad_id":57767,"intl_designator":"2023-133L","name":"WILDFIRE 2","alt_names":[],"object_type":"PAYLOAD","status":"ACTIVE","operator":null,"country":"US","launch_date":"2023-09-02","launch_site_code":"AFWTR","launch_vehicle":null,"mission":null,"orbit_class":"UNKNOWN","rcs_meters":null,"size_class":null,"mass_kg":null,"dimensions":null,"purposes":[],"wikipedia_slug":null,"has_3d_model":false,"image_url":null,"decayed_at":null,"tle_current":{"epoch":"2026-09-22T18:13:57.963360Z","epoch_age_seconds":125636,"freshness":"FRESH","line1":"1 57767U 23133L   26265.75969865  .00000060  00000+0  42821-4 0  9996","line2":"2 57767  80.9924 273.7064 0006332 112.1109 248.0720 13.85503440154516","mean_motion":13.8550344,"eccentricity":0.0006332,"inclination_deg":80.9924,"raan_deg":273.7064,"arg_perigee_deg":112.1109,"mean_anomaly_deg":248.072,"bstar":4.2821e-5,"rev_number":15451,"period_min":103.93333992733,"perigee_km":939.79472620876,"apogee_km":949.06802680077,"semimajor_km":7322.5683765048,"source":"CELESTRAK","updated_at":"2026-09-23T09:00:18.339751Z"}}}